SBS 5

operational
NORAD ID: 19484 Int'l Des: 1988-081 Owner: STLC Country: US
HEOCIRCULAR

About SBS 5

Description loading...

Live Position

Loading 3D Globe...

Upcoming Passes

Altitude History

Altitude vs Time

uPlot chart will show altitude changes over time

Two-Line Element Set

1 19484U 88081B 25353.36849911 -.00000276 00000-0 00000-0 0 9996
2 19484 14.5642 2.2866 0008174 297.4432 71.7554 0.99798983 44677
Epoch: Dec 19, 2025 • Age: 28 hours

Current Status

Altitude 35942.5 km
Velocity 3.07 km/s
Sub-Earth Point 13.75°N, 148.08°E
Launch Date Sep 8, 1988
Age 37.2 years
Type other

Technical Details

Classification Payload
Mass 703.00 kg
Dry Mass 550.00 kg
Total Mass 1246.00 kg
Length 6.60 m
Diameter 2.20 m
Span 6.60 m
Shape Cyl
Manufacturer HSES
Bus Type HS-376
Phase Status Renamed
Owner/State STLC/US

Large Constellations

Loading constellations...